Skip Page Navigation
NASA JPL Caltech
NASA Logo - Jet Propulsion Laboratory + View the NASA Portal
+ Center for Near-Earth Object Studies
JPL Home Earth Solar System Stars & Galaxies Technology
JPL Solar System Dynamics
BODIES ORBITS EPHEMERIDES TOOLS PHYSICAL DATA DISCOVERY FAQ SITE MAP
JPL Small-Body Database Browser
Search: [ help ]  
101185 (1998 SS12)
Classification: Inner Main-belt Asteroid          SPK-ID: 2101185
Ephemeris | Orbit Diagram | Orbital Elements | Mission Design | Physical Parameters | Discovery Circumstances ]

[ show orbit diagram ]
Orbital Elements at Epoch 2459000.5 (2020-May-31.0) TDB
Reference: JPL 23 (heliocentric ecliptic J2000)
 Element Value Uncertainty (1-sigma)   Units 
e .05852187724269396 5.0587e-08  
a 1.936514663496216 7.2634e-09 au
q 1.823186190080413 9.9066e-08 au
i 19.85272923247324 6.076e-06 deg
node 263.9029972781233 1.3695e-05 deg
peri 190.6812549851722 4.857e-05 deg
M 297.1361038404527 4.7264e-05 deg
tp 2459172.381211042198
(2020-Nov-18.88121104)
0.00012954 TDB
period 984.3048197036339
2.69
5.5379e-06
1.516e-08
d
yr
n .3657403609060789 2.0577e-09 deg/d
Q 2.049843136912018 7.6885e-09 au
  Orbit Determination Parameters
   # obs. used (total)      656  
   data-arc span      8119 days (22.23 yr)  
   first obs. used      1998-08-25  
   last obs. used      2020-11-16  
   planetary ephem.      DE431  
   SB-pert. ephem.      SB431-N16  
   condition code      0  
   norm. resid. RMS      .51742  
   source      ORB  
   producer      Otto Matic  
   solution date      2020-Dec-17 22:28:53  

Additional Information
 Earth MOID = .840764 au 
 Jupiter MOID = 3.1552 au 
 T_jup = 3.833 
[ show covariance matrix ]

Ephemeris | Orbit Diagram | Orbital Elements | Mission Design | Physical Parameters | Discovery Circumstances ]

Physical Parameter Table
Parameter Symbol Value Units Sigma Reference Notes
absolute magnitude H 16.0   n/a MPO474886  

101185 (1998 SS12)          Discovered 1998-Sep-23 by CSS at Catalina
Reference: 20051019/Numbers.arcLast Updated: 2005-10-26

Alternate Designations
 1998 SS12 = 2001 VA81 
Ephemeris | Orbit Diagram | Orbital Elements | Mission Design | Physical Parameters | Discovery Circumstances ]
ABOUT SSD CREDITS/AWARDS PRIVACY/COPYRIGHT GLOSSARY LINKS
FirstGov 2021-Jan-28 06:19 UT
(server date/time)  
NASA Home Page
Site Manager:   Ryan S. Park
Webmaster  Alan B. Chamberlin